This is the latest recevied weather packets stored in our database for station/object N2UFM. If no packets are shown the sender has not sent any weather packets the latest 10 day(s).
| Time | Temp. | Humidity | Pressure | Rain* | Wind** | Luminosity | Snow |
|---|---|---|---|---|---|---|---|
| 1778085013 | 19.44° C | 79% | 1010 hPa | 0.25 mm | - | - | - |
| 1778084713 | 19.44° C | 77% | 1010.1 hPa | 0.25 mm | - | - | - |
| 1778084413 | 20° C | 75% | 1010.3 hPa | 0.25 mm | - | - | - |
| 1778084112 | 20.56° C | 73% | 1010.2 hPa | 0 mm | - | - | - |
| 1778083812 | 21.11° C | 70% | 1010.3 hPa | 0 mm | - | - | - |
| 1778083512 | 21.67° C | 67% | 1010.4 hPa | 0 mm | - | - | - |
| 1778083212 | 21.67° C | 65% | 1010.2 hPa | 0 mm | - | - | - |
| 1778082912 | 21.67° C | 64% | 1010.2 hPa | 0 mm | - | - | - |
| 1778082612 | 22.22° C | 63% | 1010.3 hPa | 0 mm | - | - | - |
| 1778082312 | 22.22° C | 63% | 1010.3 hPa | 0 mm | - | - | - |
| 1778082011 | 22.22° C | 63% | 1010.3 hPa | 0 mm | - | - | - |
| 1778081711 | 22.22° C | 64% | 1010.2 hPa | 0 mm | - | - | - |
| 1778081411 | 21.67° C | 64% | 1010.2 hPa | 0 mm | - | - | - |
| 1778081111 | 21.67° C | 65% | 1010.1 hPa | 0 mm | - | - | - |
| 1778080811 | 21.67° C | 64% | 1010.1 hPa | 0 mm | - | - | - |
| 1778080511 | 21.67° C | 64% | 1010.4 hPa | 0 mm | - | - | - |
| 1778080210 | 22.22° C | 64% | 1010.5 hPa | 0 mm | - | - | - |
| 1778079910 | 22.22° C | 63% | 1010.4 hPa | 0 mm | - | - | - |
| 1778079610 | 22.22° C | 63% | 1010.6 hPa | 0 mm | - | - | - |
| 1778079310 | 22.22° C | 63% | 1010.5 hPa | 0 mm | - | - | - |
| 1778079010 | 22.78° C | 62% | 1010.5 hPa | 0 mm | - | - | - |
| 1778078710 | 22.78° C | 63% | 1010.5 hPa | 0 mm | - | - | - |
| 1778078409 | 22.78° C | 63% | 1010.3 hPa | 0 mm | - | - | - |
| 1778078109 | 22.78° C | 63% | 1010.4 hPa | 0 mm | - | - | - |
| 1778077809 | 22.78° C | 64% | 1010.4 hPa | 0 mm | - | - | - |
* Rain latest hour (hover to see other rain measurements)
** Current wind speed in m/s (hover to see current wind gust speed)